Fairbanks Eiels, AK

12:12 PM AKST on December 06, 2019 (GMT -0900)
Eielson Air Force Base

Weather History for PAEI - October, 2019

Change the Weather History Date:

Thursday, October 24, 2019

  Actual Average Record
Temperature  
Mean Temperature 27 °F -  
Max Temperature 36 °F 24 °F 57 °F (1998)
Min Temperature 18 °F 9 °F -16 °F (1996)
Degree Days  
Heating Degree Days 38    
Moisture  
Dew Point 22 °F    
Average Humidity 82    
Maximum Humidity 88    
Minimum Humidity 74    
Precipitation  
Precipitation 0.00 in - - ()
Snow  
Snow 0.00 in - - ()
Snow Depth 0.00 in    
Sea Level Pressure  
Sea Level Pressure 29.40 in    
Wind  
Wind Speed 1 mph (NW)    
Max Wind Speed 6 mph    
Max Gust Speed -    
Visibility 10 miles    
Events      
Averages and records for this station are not official NWS values.
T = Trace of Precipitation, MM = Missing Value Source: NWS Daily Summary

Daily Weather History Graph

Daily Weather History Graph

Search for Another Location

Airport or City:

Astronomy

Oct. 24, 2019 Rise Set
Actual Time 9:08 AM AKDT 5:55 PM AKDT
Civil Twilight 8:16 AM AKDT 6:46 PM AKDT
Nautical Twilight 7:19 AM AKDT 7:43 PM AKDT
Astronomical Twilight 6:23 AM AKDT 8:39 PM AKDT
Moon 2:40 AM AKDT (10/24) 6:16 PM AKDT (10/24)
Length of Visible Light 10h 30m
Length of Day
8h 46m
Waning Crescent, 15% of the Moon is Illuminated
Oct 24
Waning Crescent
Oct 27
New
Nov 4
First Quarter
Nov 12
Full
Nov 19
Last Quarter

Hourly Weather History & Observations

Time (AKDT) Temp. Windchill Dew Point Humidity Pressure Visibility Wind Dir Wind Speed Gust Speed Precip Events Conditions
12:55 AM 19.9 °F - 16.2 °F 85% 29.26 in 10.0 mi Calm Calm - N/A   Clear
12:56 AM 19.9 °F - 16.2 °F 85% 29.26 in 10.0 mi Calm Calm - N/A   Clear
1:56 AM 19.2 °F - 16.0 °F 87% 29.27 in 10.0 mi Calm Calm - N/A   Clear
2:56 AM 18.7 °F - 15.1 °F 86% 29.26 in 10.0 mi Calm Calm - N/A   Clear
3:56 AM 19.9 °F 14.9 °F 16.9 °F 88% 29.26 in 10.0 mi NNE 3.5 mph - N/A   Overcast
4:56 AM 22.3 °F - 18.5 °F 85% 29.26 in 10.0 mi Calm Calm - N/A   Mostly Cloudy
5:56 AM 23.0 °F - 19.4 °F 86% 29.27 in 10.0 mi Calm Calm - N/A   Overcast
6:56 AM 22.8 °F 18.2 °F 19.2 °F 86% 29.27 in 10.0 mi NNW 3.5 mph - N/A   Overcast
7:56 AM 25.2 °F 19.5 °F 21.6 °F 86% 29.29 in 10.0 mi NNW 4.6 mph - N/A   Overcast
8:56 AM 26.1 °F 21.9 °F 22.5 °F 86% 29.31 in 10.0 mi South 3.5 mph - N/A   Overcast
9:56 AM 25.9 °F - 21.7 °F 84% 29.31 in 10.0 mi Calm Calm - N/A   Overcast
10:56 AM 26.2 °F - 22.3 °F 85% 29.33 in 10.0 mi Calm Calm - N/A   Mostly Cloudy
11:56 AM 28.9 °F - 24.1 °F 82% 29.39 in 10.0 mi Calm Calm - N/A   Mostly Cloudy
12:26 PM 30.2 °F - 24.8 °F 80% 29.39 in 10.0 mi Calm Calm - N/A   Mostly Cloudy
12:56 PM 30.6 °F - 26.2 °F 84% 29.37 in 10.0 mi Calm Calm - N/A   Mostly Cloudy
1:56 PM 32.7 °F - 27.0 °F 79% 29.39 in 10.0 mi Calm Calm - N/A   Mostly Cloudy
2:56 PM 36.0 °F - 28.4 °F 74% 29.43 in 10.0 mi Calm Calm - N/A   Mostly Cloudy
3:56 PM 36.0 °F - 29.5 °F 77% 29.44 in 10.0 mi Calm Calm - N/A   Mostly Cloudy
4:56 PM 34.9 °F 32.0 °F 28.0 °F 76% 29.45 in 10.0 mi West 3.5 mph - N/A   Mostly Cloudy
5:56 PM 31.6 °F - 25.5 °F 78% 29.47 in 10.0 mi Calm Calm - N/A   Mostly Cloudy
6:56 PM 29.8 °F - 24.1 °F 79% 29.50 in 10.0 mi Calm Calm - N/A   Overcast
7:56 PM 28.2 °F - 22.8 °F 80% 29.53 in 10.0 mi Calm Calm - N/A   Overcast
8:11 PM 28.4 °F 24.6 °F 23.0 °F 80% 29.54 in 10.0 mi South 3.5 mph - N/A   Overcast
8:56 PM 27.5 °F - 22.1 °F 80% 29.56 in 10.0 mi Calm Calm - N/A   Overcast
9:56 PM 25.7 °F 19.0 °F 21.0 °F 82% 29.60 in 10.0 mi ESE 5.8 mph - N/A   Overcast
10:56 PM 25.9 °F - 21.2 °F 82% 29.63 in 10.0 mi Calm Calm - N/A   Overcast
11:56 PM 25.9 °F - 21.4 °F 83% 29.67 in 10.0 mi Calm Calm - N/A   Overcast